| time (UTC) | temp F | wind direction | speed knots | gust knots | rain 1hr in | rain 24hr in | rain mn in | humidity % | barometer mb |
| 20260906095517 | 98 | 0 | 8.7 | 14.8 | 0.00 | 0.00 | 0.00 | 28 | 1011.6 |
| 20260906094526 | 97 | 338 | 8.7 | 14.8 | 0.00 | 0.00 | 0.00 | 29 | 1011.7 |
| 20260906093516 | 98 | 338 | 10.4 | 14.8 | 0.00 | 0.00 | 0.00 | 28 | 1011.7 |
| 20260906092517 | 97 | 338 | 11.3 | 15.6 | 0.00 | 0.00 | 0.00 | 28 | 1011.7 |
| 20260906091517 | 97 | 338 | 11.3 | 15.6 | 0.00 | 0.00 | 0.00 | 28 | 1011.8 |
| 20260906090516 | 98 | 338 | 9.6 | 13.9 | 0.00 | 0.00 | 0.00 | 28 | 1011.8 |
| 20260906085516 | 97 | 338 | 8.7 | 14.8 | 0.00 | 0.00 | 0.00 | 28 | 1011.8 |
| 20260906084516 | 97 | 338 | 7.8 | 13.0 | 0.00 | 0.00 | 0.00 | 30 | 1011.9 |
| 20260906083516 | 97 | 338 | 7.0 | 13.9 | 0.00 | 0.00 | 0.00 | 30 | 1011.9 |
| 20260906082516 | 97 | 0 | 7.8 | 11.3 | 0.00 | 0.00 | 0.00 | 29 | 1011.8 |
| 20260906081516 | 96 | 0 | 9.6 | 13.0 | 0.00 | 0.00 | 0.00 | 31 | 1011.9 |
| 20260906080516 | 96 | 315 | 8.7 | 15.6 | 0.00 | 0.00 | 0.00 | 32 | 1011.9 |
| 20260906075516 | 96 | 338 | 7.8 | 13.0 | 0.00 | 0.00 | 0.00 | 32 | 1011.9 |
| 20260906074516 | 95 | 338 | 9.6 | 13.9 | 0.00 | 0.00 | 0.00 | 33 | 1011.9 |
| 20260906073516 | 95 | 0 | 9.6 | 13.0 | 0.00 | 0.00 | 0.00 | 32 | 1011.9 |
| 20260906072516 | 95 | 0 | 6.1 | 12.2 | 0.00 | 0.00 | 0.00 | 33 | 1011.9 |
| 20260906071516 | 94 | 0 | 7.0 | 11.3 | 0.00 | 0.00 | 0.00 | 33 | 1011.9 |
| 20260906070516 | 94 | 0 | 7.0 | 12.2 | 0.00 | 0.00 | 0.00 | 33 | 1011.7 |
| 20260906065516 | 93 | 0 | 7.0 | 12.2 | 0.00 | 0.00 | 0.00 | 34 | 1011.6 |
| 20260906064536 | 93 | 23 | 7.8 | 12.2 | 0.00 | 0.00 | 0.00 | 34 | 1011.6 |
| 20260906063516 | 93 | 0 | 7.0 | 11.3 | 0.00 | 0.00 | 0.00 | 34 | 1011.6 |
| 20260906062536 | 92 | 0 | 5.2 | 9.6 | 0.00 | 0.00 | 0.00 | 34 | 1011.4 |
| 20260906061516 | 92 | 0 | 5.2 | 10.4 | 0.00 | 0.00 | 0.00 | 35 | 1011.3 |
| 20260906060516 | 92 | 23 | 2.6 | 6.1 | 0.00 | 0.00 | 0.00 | 35 | 1011.3 |
| 20260906055516 | 91 | 23 | 1.7 | 3.5 | 0.00 | 0.00 | 0.00 | 35 | 1011.2 |
| 20260906054516 | 90 | 0 | 3.5 | 7.8 | 0.00 | 0.00 | 0.00 | 36 | 1011.2 |
| 20260906053516 | 88 | 158 | 1.7 | 3.5 | 0.00 | 0.00 | 0.00 | 40 | 1011.1 |
| 20260906052516 | 87 | 180 | 0.9 | 1.7 | 0.00 | 0.00 | 0.00 | 45 | 1011.0 |
| 20260906051536 | 88 | 45 | 0.9 | 2.6 | 0.00 | 0.00 | 0.00 | 38 | 1011.0 |
| 20260906050516 | 88 | 45 | 1.7 | 3.5 | 0.00 | 0.00 | 0.00 | 38 | 1010.9 |
| 20260906045536 | 86 | 135 | 1.7 | 2.6 | 0.00 | 0.00 | 0.00 | 47 | 1010.8 |
| 20260906044516 | 85 | 90 | 1.7 | 3.5 | 0.00 | 0.00 | 0.00 | 48 | 1010.8 |
| 20260906043516 | 88 | 23 | 1.7 | 6.1 | 0.00 | 0.00 | 0.00 | 37 | 1010.7 |
| 20260906042516 | 88 | 23 | 4.3 | 7.8 | 0.00 | 0.00 | 0.00 | 37 | 1010.6 |
| 20260906041536 | 87 | 0 | 1.7 | 4.3 | 0.00 | 0.00 | 0.00 | 38 | 1010.5 |
| 20260906040516 | 87 | 0 | 3.5 | 7.0 | 0.00 | 0.00 | 0.00 | 38 | 1010.5 |
| 20260906035516 | 87 | 338 | 4.3 | 8.7 | 0.00 | 0.00 | 0.00 | 38 | 1010.5 |
| 20260906034516 | 87 | 338 | 5.2 | 10.4 | 0.00 | 0.00 | 0.00 | 39 | 1010.5 |
| 20260906033516 | 87 | 0 | 2.6 | 5.2 | 0.00 | 0.00 | 0.00 | 40 | 1010.4 |
| 20260906032516 | 85 | 338 | 3.5 | 7.0 | 0.00 | 0.00 | 0.00 | 42 | 1010.2 |
| 20260906031536 | 84 | 338 | 4.3 | 7.8 | 0.00 | 0.00 | 0.00 | 45 | 1010.2 |
| 20260906030518 | 84 | 338 | 7.0 | 9.6 | 0.00 | 0.00 | 0.00 | 45 | 1010.2 |
| 20260906025538 | 85 | 338 | 8.7 | 13.0 | 0.00 | 0.00 | 0.00 | 44 | 1010.1 |
| 20260906024516 | 84 | 338 | 7.8 | 12.2 | 0.00 | 0.00 | 0.00 | 44 | 1010.1 |
| 20260906023518 | 85 | 0 | 2.6 | 4.3 | 0.00 | 0.00 | 0.00 | 44 | 1010.2 |
| 20260906022518 | 86 | 0 | 2.6 | 4.3 | 0.00 | 0.00 | 0.00 | 42 | 1010.4 |
| 20260906021538 | 85 | 338 | 4.3 | 7.8 | 0.00 | 0.00 | 0.00 | 42 | 1010.3 |
| 20260906020518 | 84 | 338 | 2.6 | 4.3 | 0.00 | 0.00 | 0.00 | 44 | 1010.4 |
| 20260906015517 | 84 | 0 | 0.9 | 1.7 | 0.00 | 0.00 | 0.00 | 45 | 1010.3 |
| 20260906014538 | 84 | 0 | 3.5 | 5.2 | 0.00 | 0.00 | 0.00 | 45 | 1010.4 |
| 20260906013538 | 84 | 338 | 2.6 | 5.2 | 0.00 | 0.00 | 0.00 | 45 | 1010.5 |
| 20260906012518 | 84 | 338 | 2.6 | 4.3 | 0.00 | 0.00 | 0.00 | 44 | 1010.5 |
| 20260906011518 | 84 | 338 | 2.6 | 3.5 | 0.00 | 0.00 | 0.00 | 45 | 1010.5 |
| 20260906010517 | 84 | 315 | 0.9 | 1.7 | 0.00 | 0.00 | 0.00 | 46 | 1010.5 |
| 20260906005538 | 85 | 135 | 0.9 | 2.6 | 0.00 | 0.00 | 0.00 | 45 | 1010.4 |
| 20260906004518 | 85 | 158 | 1.7 | 3.5 | 0.00 | 0.00 | 0.00 | 47 | 1010.3 |
| 20260906003516 | 86 | 293 | 0.9 | 1.7 | 0.00 | 0.00 | 0.00 | 40 | 1010.3 |
| 20260906002518 | 85 | 90 | 0.9 | 2.6 | 0.00 | 0.00 | 0.00 | 42 | 1010.2 |
| 20260906001517 | 86 | 0 | 1.7 | 3.5 | 0.00 | 0.00 | 0.00 | 39 | 1010.2 |
| 20260906000518 | 86 | 293 | 2.6 | 6.1 | 0.00 | 0.00 | 0.00 | 40 | 1010.3 |
| 20260905235517 | 85 | 225 | 1.7 | 4.3 | 0.00 | 0.00 | 0.00 | 45 | 1010.4 |
| 20260905234537 | 85 | 135 | 1.7 | 2.6 | 0.00 | 0.00 | 0.00 | 45 | 1010.4 |
| 20260905233517 | 86 | 0 | 0.9 | 4.3 | 0.00 | 0.00 | 0.00 | 43 | 1010.4 |
| 20260905232518 | 85 | 90 | 0.9 | 2.6 | 0.00 | 0.00 | 0.00 | 45 | 1010.4 |
| 20260905231517 | 85 | 248 | 0.9 | 1.7 | 0.00 | 0.00 | 0.00 | 45 | 1010.5 |
| 20260905230518 | 86 | 0.0 | 0.9 | 0.00 | 0.00 | 0.00 | 46 | 1010.6 | |
| 20260905225517 | 86 | 45 | 0.9 | 1.7 | 0.00 | 0.00 | 0.00 | 43 | 1010.5 |
| 20260905224517 | 87 | 23 | 0.9 | 2.6 | 0.00 | 0.00 | 0.00 | 41 | 1010.6 |
| 20260905223517 | 86 | 0 | 1.7 | 2.6 | 0.00 | 0.00 | 0.00 | 41 | 1010.6 |
| 20260905222538 | 86 | 338 | 2.6 | 4.3 | 0.00 | 0.00 | 0.00 | 43 | 1010.7 |
| 20260905221518 | 87 | 0 | 3.5 | 7.8 | 0.00 | 0.00 | 0.00 | 40 | 1010.7 |
| 20260905220518 | 87 | 338 | 3.5 | 7.8 | 0.00 | 0.00 | 0.00 | 39 | 1010.7 |
| 20260905215518 | 88 | 0 | 3.5 | 9.6 | 0.00 | 0.00 | 0.00 | 37 | 1010.7 |
| 20260905214517 | 88 | 0 | 3.5 | 9.6 | 0.00 | 0.00 | 0.00 | 37 | 1010.7 |
| 20260905213538 | 88 | 0 | 1.7 | 4.3 | 0.00 | 0.00 | 0.00 | 36 | 1010.8 |
| 20260905212517 | 88 | 0 | 1.7 | 4.3 | 0.00 | 0.00 | 0.00 | 36 | 1011.0 |
| 20260905211517 | 87 | 0 | 3.5 | 7.0 | 0.00 | 0.00 | 0.00 | 37 | 1011.0 |
| 20260905210518 | 88 | 0 | 3.5 | 6.1 | 0.00 | 0.00 | 0.00 | 38 | 1010.9 |
| 20260905205516 | 87 | 338 | 2.6 | 6.1 | 0.00 | 0.00 | 0.00 | 38 | 1011.0 |
| 20260905204517 | 86 | 0 | 0.9 | 1.7 | 0.00 | 0.00 | 0.00 | 43 | 1011.1 |
| 20260905203517 | 85 | 0 | 2.6 | 3.5 | 0.00 | 0.00 | 0.00 | 44 | 1011.1 |
| 20260905202517 | 85 | 0 | 2.6 | 3.5 | 0.00 | 0.00 | 0.00 | 45 | 1011.1 |
| 20260905201517 | 87 | 23 | 1.7 | 4.3 | 0.00 | 0.00 | 0.00 | 41 | 1011.2 |
| 20260905200517 | 86 | 0 | 0.9 | 2.6 | 0.00 | 0.00 | 0.00 | 47 | 1011.2 |
| 20260905194517 | 89 | 315 | 3.5 | 6.1 | 0.00 | 0.00 | 0.00 | 39 | 1011.2 |
| 20260905193516 | 88 | 338 | 3.5 | 7.8 | 0.00 | 0.00 | 0.00 | 40 | 1011.1 |
| 20260905192517 | 87 | 0 | 3.5 | 7.8 | 0.00 | 0.00 | 0.00 | 42 | 1011.2 |
| 20260905191517 | 87 | 0 | 7.0 | 10.4 | 0.00 | 0.00 | 0.00 | 43 | 1011.2 |
| 20260905190516 | 87 | 0 | 5.2 | 10.4 | 0.00 | 0.00 | 0.00 | 43 | 1011.3 |
| 20260905185517 | 87 | 0 | 4.3 | 8.7 | 0.00 | 0.00 | 0.00 | 43 | 1011.2 |
| 20260905184516 | 87 | 338 | 7.8 | 11.3 | 0.00 | 0.00 | 0.00 | 43 | 1011.3 |
| 20260905183516 | 87 | 338 | 7.8 | 11.3 | 0.00 | 0.00 | 0.00 | 42 | 1011.4 |
| 20260905182517 | 88 | 338 | 7.0 | 13.0 | 0.00 | 0.00 | 0.00 | 41 | 1011.2 |
| 20260905181536 | 87 | 338 | 7.8 | 12.2 | 0.00 | 0.00 | 0.00 | 44 | 1011.2 |
| 20260905180536 | 87 | 0 | 8.7 | 11.3 | 0.00 | 0.00 | 0.00 | 49 | 1011.4 |
| 20260905175516 | 86 | 0 | 7.0 | 10.4 | 0.00 | 0.00 | 0.00 | 50 | 1011.2 |
| 20260905174516 | 86 | 338 | 2.6 | 5.2 | 0.00 | 0.00 | 0.00 | 57 | 1011.1 |
| 20260905173516 | 85 | 0 | 2.6 | 4.3 | 0.00 | 0.00 | 0.00 | 65 | 1011.1 |
| 20260905172516 | 86 | 0 | 2.6 | 4.3 | 0.00 | 0.00 | 0.00 | 67 | 1011.1 |
| 20260905171516 | 87 | 338 | 4.3 | 7.0 | 0.00 | 0.00 | 0.00 | 63 | 1011.0 |
| 20260905170517 | 89 | 0 | 4.3 | 7.8 | 0.00 | 0.00 | 0.00 | 43 | 1010.7 |
| 20260905165517 | 91 | 0 | 2.6 | 3.5 | 0.00 | 0.00 | 0.00 | 37 | 1010.5 |
| 20260905164517 | 92 | 293 | 1.7 | 3.5 | 0.00 | 0.00 | 0.00 | 37 | 1010.5 |
| 20260905163517 | 92 | 338 | 0.9 | 3.5 | 0.00 | 0.00 | 0.00 | 37 | 1010.6 |
| 20260905161517 | 92 | 225 | 1.7 | 3.5 | 0.00 | 0.00 | 0.00 | 37 | 1010.5 |
| 20260905160516 | 92 | 270 | 2.6 | 5.2 | 0.00 | 0.00 | 0.00 | 37 | 1010.5 |
| 20260905155516 | 92 | 248 | 2.6 | 6.1 | 0.00 | 0.00 | 0.00 | 38 | 1010.6 |
| 20260905154556 | 92 | 225 | 2.6 | 7.0 | 0.00 | 0.00 | 0.00 | 38 | 1010.7 |
| 20260905153517 | 92 | 180 | 2.6 | 5.2 | 0.00 | 0.00 | 0.00 | 38 | 1010.7 |
| 20260905152537 | 93 | 225 | 1.7 | 5.2 | 0.00 | 0.00 | 0.00 | 38 | 1010.8 |
| 20260905151516 | 93 | 203 | 1.7 | 4.3 | 0.00 | 0.00 | 0.00 | 36 | 1010.7 |
| 20260905150516 | 92 | 225 | 3.5 | 6.1 | 0.00 | 0.00 | 0.00 | 37 | 1010.7 |
| 20260905145516 | 92 | 180 | 4.3 | 7.8 | 0.00 | 0.00 | 0.00 | 38 | 1010.5 |
| 20260905144517 | 93 | 225 | 3.5 | 7.0 | 0.00 | 0.00 | 0.00 | 36 | 1010.5 |
| 20260905143516 | 91 | 203 | 4.3 | 7.0 | 0.00 | 0.00 | 0.00 | 43 | 1010.5 |
| 20260905142516 | 91 | 203 | 5.2 | 8.7 | 0.00 | 0.00 | 0.00 | 42 | 1010.4 |
| 20260905141516 | 91 | 203 | 5.2 | 8.7 | 0.00 | 0.00 | 0.00 | 45 | 1010.3 |
| 20260905140536 | 92 | 180 | 5.2 | 7.8 | 0.00 | 0.00 | 0.00 | 41 | 1010.2 |
| 20260905135516 | 92 | 180 | 6.1 | 9.6 | 0.00 | 0.00 | 0.00 | 38 | 1010.2 |
| 20260905134516 | 92 | 180 | 5.2 | 8.7 | 0.00 | 0.00 | 0.00 | 41 | 1010.3 |
| 20260905133516 | 92 | 180 | 4.3 | 8.7 | 0.00 | 0.00 | 0.00 | 41 | 1010.3 |
| 20260905132516 | 90 | 158 | 4.3 | 7.8 | 0.00 | 0.00 | 0.00 | 52 | 1010.3 |
| 20260905131516 | 89 | 180 | 5.2 | 6.1 | 0.00 | 0.00 | 0.00 | 52 | 1010.3 |
| 20260905130516 | 89 | 158 | 5.2 | 7.8 | 0.00 | 0.00 | 0.00 | 55 | 1010.4 |
| 20260905125516 | 90 | 180 | 5.2 | 7.8 | 0.00 | 0.00 | 0.00 | 52 | 1010.4 |
| 20260905124516 | 89 | 158 | 5.2 | 7.8 | 0.00 | 0.00 | 0.00 | 58 | 1010.4 |
| 20260905123516 | 89 | 158 | 6.1 | 8.7 | 0.00 | 0.00 | 0.00 | 57 | 1010.4 |
| 20260905122516 | 89 | 158 | 5.2 | 8.7 | 0.00 | 0.00 | 0.00 | 57 | 1010.5 |
| 20260905121516 | 88 | 158 | 6.1 | 8.7 | 0.00 | 0.00 | 0.00 | 59 | 1010.5 |
| 20260905120516 | 88 | 158 | 7.0 | 9.6 | 0.00 | 0.00 | 0.00 | 60 | 1010.7 |
| 20260905115516 | 88 | 158 | 7.0 | 10.4 | 0.00 | 0.00 | 0.00 | 59 | 1010.6 |
| 20260905114516 | 88 | 158 | 7.0 | 10.4 | 0.00 | 0.00 | 0.00 | 59 | 1010.6 |
| 20260905113536 | 88 | 158 | 7.0 | 9.6 | 0.00 | 0.00 | 0.00 | 59 | 1010.7 |
| 20260905112516 | 88 | 158 | 6.1 | 9.6 | 0.00 | 0.00 | 0.00 | 58 | 1010.8 |
| 20260905111516 | 87 | 180 | 6.1 | 9.6 | 0.00 | 0.00 | 0.00 | 57 | 1010.9 |
| 20260905110536 | 88 | 158 | 5.2 | 8.7 | 0.00 | 0.00 | 0.00 | 56 | 1010.9 |
| 20260905105516 | 88 | 180 | 4.3 | 7.8 | 0.00 | 0.00 | 0.00 | 54 | 1010.9 |
| 20260905104536 | 88 | 158 | 5.2 | 7.8 | 0.00 | 0.00 | 0.00 | 57 | 1011.0 |
| 20260905103516 | 88 | 180 | 4.3 | 6.1 | 0.00 | 0.00 | 0.00 | 55 | 1011.0 |
| 20260905102516 | 88 | 135 | 2.6 | 6.1 | 0.00 | 0.00 | 0.00 | 56 | 1011.0 |
| 20260905101516 | 88 | 158 | 3.5 | 5.2 | 0.00 | 0.00 | 0.00 | 55 | 1011.0 |
| 20260905100516 | 88 | 180 | 2.6 | 5.2 | 0.00 | 0.00 | 0.00 | 54 | 1011.0 |